Location: Newark
(45.5000°N, 11.4167°E)
Time: 17:58:19
(UTC+00:00)

Vanguard 2 - Pass Details

Date: 30 August 2019
Orbit: 554 x 2937 km, 32.9° (Epoch: 16 October)

Event Time Altitude Azimuth Distance (km) Brightness Sun altitude
Rises 16:00:46 0° 253° (WSW) 4,203 12.9 19.3°
Reaches altitude 10° 16:06:42 10° 219° (SW) 3,844 11.9 18.3°
Maximum altitude 16:09:01 11° 206° (SSW) 3,994 11.7 17.9°
Drops below altitude 10° 16:11:34 10° 193° (SSW) 4,310 11.6 17.5°
Sets 16:20:14 0° 164° (SSE) 6,013 12.0 15.9°
